Weather observations for the past three days for
Quantico Marine Corps Airfield - Turner Field
Imperial (Metric)
Date Time (edt) Wind (mph) Vis. (mi.) Weather Sky Cond. Temperature (ºF) Relative Humidity Wind Chill (°F) Heat Index (°F) Pressure Precipitation (in)
Air Dwpt 6 hour altimeter (in) sea level (mb) 1 hr 3 hr 6 hr
Max. Min.
21 21:56 SE 10 4.00 Fair CLR 82.9 73.9 74% 89 30.06 1017.9
21 20:56 SE 13 5.00 Fair CLR 84.9 73.9 70% 92 30.02 1016.6
21 19:56 S 13 3.00 Fair CLR 87.1 73 91 87.1 63% 95 30 1016.1
21 18:56 Calm 3.00 Fair CLR 88 71.1 57% 94 30 1015.8
21 17:56 S 10 3.00 Fair CLR 89.1 69.1 52% 94 29.99 1015.8
21 16:56 S 9 3.00 Fair CLR 90 69.1 50% 95 30.01 1016.3
21 15:56 S 7 3.00 Fair CLR 90 68 48% 94 30.02 1016.5
21 14:56 S 8 3.00 Fair CLR 89.1 71.1 55% 95 30.03 1017.1
21 13:56 Calm 3.00 A Few Clouds FEW090 87.1 72 87.1 73.9 61% 94 30.05 1017.6
21 12:56 S 8 3.00 Fair CLR 86 73 65% 93 30.06 1018.0
21 11:56 S 6 3.00 Fair CLR 82.9 73 72% 89 30.06 1018.1
21 10:56 Calm 3.00 Fair CLR 81 73 77% 86 30.07 1018.2
21 09:56 S 5 2.50 A Few Clouds FEW014 79 73 82% 82 30.06 1018.0
21 08:56 Calm 2.50 Fair CLR 78.1 73 85% 81 30.06 1018.1
21 07:56 NW 3 2.00 A Few Clouds FEW017 73.9 71.1 73.9 70 91% 30.06 1018.1
21 06:56 W 6 2.00 Partly Cloudy SCT018 71.1 69.1 94% 30.05 1017.6
21 05:56 Calm 2.00 Overcast BKN019 OVC110 71.1 69.1 94% 30.04 1017.4
21 04:56 W 3 2.50 A Few Clouds FEW022 71.1 68 90% 30.03 1017.1
21 03:56 Calm 2.50 Fair CLR 70 69.1 97% 30.02 1016.6
21 02:56 NW 5 2.50 Fair CLR 71.1 69.1 94% 30.02 1016.7
21 01:56 NW 3 2.50 Fair CLR 72 69.1 77 72 91% 30.04 1017.2
21 00:56 NW 5 3.00 Fair CLR 72 70 94% 30.04 1017.3
20 23:56 W 7 2.50 Fair CLR 73 70 90% 30.04 1017.5
20 22:56 W 7 2.50 Fair CLR 73.9 71.1 91% 30.06 1017.8
20 21:56 W 5 2.50 Fair CLR 73.9 71.1 91% 30.06 1018.0
20 20:56 W 3 5.00 Fair CLR 75 72 90% 74 30.06 1018.1
20 19:56 S 3 4.00 Fair CLR 77 68 82.9 75.9 74% 79 30.06 1018.0
20 18:56 SE 12 4.00 Fair CLR 77 68 74% 79 30.04 1017.3
20 17:56 Vrbl 6 4.00 Mostly Cloudy SCT035 BKN065 BKN095 77 70 79% 79 30.06 1017.9
20 16:56 SE 16 G 23 3.00 Overcast BKN014 BKN024 OVC029 77 72 85% 78 30.06 1018.0
20 15:56 Calm 2.50 Overcast BKN095 OVC110 77 70 79% 79 30.07 1018.4
20 14:56 S 16 2.00 Overcast BKN029 OVC036 77 71.1 82% 79 30.09 1018.9
20 13:56 SE 9 4.00 Overcast OVC110 82.9 69.1 84 75.9 63% 87 30.08 1018.7
20 12:56 SE 10 4.00 Mostly Cloudy BKN095 84 70 63% 88 30.09 1019.0
20 11:56 SE 5 3.00 Mostly Cloudy FEW023 FEW032 BKN050 82.9 73 72% 89 30.1 1019.3
20 10:56 Calm 3.00 Mostly Cloudy FEW019 SCT028 BKN034 81 73.9 79% 86 30.1 1019.5
20 09:56 NE 3 3.00 Fair CLR 80.1 73 79% 84 30.11 1019.8
20 08:56 Calm 3.00 A Few Clouds FEW008 FEW023 78.1 73 85% 81 30.11 1019.8
20 07:56 W 6 3.00 Fair CLR 75.9 72 77 73.9 88% 76 30.12 1019.9
20 06:56 W 5 2.50 Partly Cloudy FEW011 SCT029 73.9 71.1 91% 30.11 1019.7
20 05:56 W 5 4.00 Fair CLR 73.9 71.1 91% 30.11 1019.7
20 04:56 W 5 4.00 Fair CLR 73.9 71.1 91% 30.11 1019.7
20 03:56 W 5 5.00 Fair CLR 75 70 84% 75 30.11 1019.7
20 02:56 SW 7 3.00 Partly Cloudy SCT013 75.9 71.1 85% 76 30.11 1019.8
20 01:56 SW 5 4.00 A Few Clouds FEW014 77 70 84 77 79% 79 30.11 1019.8
20 00:56 SE 10 4.00 Fair CLR 78.1 71.1 79% 80 30.12 1020.2
19 23:56 S 12 4.00 Fair CLR 79 70 74% 82 30.13 1020.4
19 22:56 SE 14 4.00 Fair CLR 80.1 69.1 69% 83 30.13 1020.2
19 21:56 SE 13 4.00 Fair CLR 81 70 69% 84 30.13 1020.3
19 20:56 SE 12 4.00 Fair CLR 82 66.9 60% 85 30.11 1019.6
19 19:56 SE 10 2.50 Fair CLR 84 64 87.1 84 51% 85 30.09 1019.0
19 18:56 Calm 2.50 Fair CLR 86 64 48% 87 30.08 1018.8
19 17:56 S 7 2.50 Fair CLR 87.1 64.9 48% 89 30.08 1018.5
19 16:56 S 7 7.00 Partly Cloudy SCT090 87.1 66 50% 89 30.08 1018.8
19 15:56 S 6 7.00 Partly Cloudy SCT090 86 66.9 53% 89 30.1 1019.4
19 14:56 S 5 7.00 Fair CLR 86 66.9 53% 89 30.11 1019.8
19 13:56 S 3 7.00 Partly Cloudy SCT090 84.9 66.9 84.9 78.1 55% 88 30.13 1020.5
19 12:56 Calm 7.00 Fair CLR 84.9 64 50% 86 30.14 1020.8
19 11:56 NE 6 7.00 A Few Clouds FEW110 82.9 64.9 55% 85 30.14 1020.7
19 10:56 NE 9 7.00 Mostly Cloudy SCT090 BKN150 82 64.9 56% 84 30.14 1020.8
19 09:56 NE 9 7.00 Partly Cloudy SCT150 80.1 64.9 60% 82 30.13 1020.5
19 08:56 NE 12 G 20 7.00 Mostly Cloudy BKN090 79 66 65% 81 30.13 1020.5
19 07:56 N 13 G 18 7.00 Mostly Cloudy BKN120 78.1 66.9 78.1 71.1 69% 80 30.11 1019.8
19 06:56 N 7 2.50 Fair CLR 73.9 66 76% 30.09 1018.9
19 05:56 W 8 2.50 Overcast OVC100 72 68 87% 30.06 1018.0
19 04:56 W 6 3.00 Partly Cloudy SCT100 71.1 66.9 87% 30.04 1017.2
19 03:56 W 7 3.00 Fair CLR 71.1 68 90% 30.03 1016.8
19 02:56 W 7 3.00 Fair CLR 72 68 87% 30.02 1016.7
19 01:56 W 8 2.50 Fair CLR 73 69.1 84 72 87% 30.02 1016.8
19 00:56 W 9 2.50 Mostly Cloudy BKN100 73 69.1 87% 30.03 1016.8
18 23:56 W 5 4.00 Mostly Cloudy BKN100 75 70 84% 75 30.02 1016.6
18 22:56 W 7 5.00 A Few Clouds FEW110 75.9 70 82% 77 30.01 1016.3
Date Time (edt) Wind (mph) Vis. (mi.) Weather Sky Cond. Air Dwpt Max. Min. Relative Humidity Wind Chill (°F) Heat Index (°F) altimeter (in) sea level (mb) 1 hr 3 hr 6 hr
6 hour
Temperature (ºF) Pressure Precipitation (in)